TIMESTAMP,CO2_1_1_1,H2O_1_1_1,TAU_1_1_1,TAU_SSITC_TEST_1_1_1,H_1_1_1,H_SSITC_TEST_1_1_1,LE_1_1_1,LE_SSITC_TEST_1_1_1,FC_1_1_1,FC_SSITC_TEST_1_1_1,WD_0_0_1,WS_0_0_1,WS_MAX_0_0_1,U_SIGMA_0_0_1,V_SIGMA_0_0_1,W_SIGMA_0_0_1,USTAR_0_0_1,MO_LENGTH_0_0_1,ZL_0_0_1,FETCH_MAX_0_0_1,FETCH_70_0_0_1,FETCH_80_0_0_1,FETCH_90_0_0_1,PA_0_0_1,RH_0_0_1,TA_0_0_1,VPD_0_0_1,T_SONIC_0_0_1,T_SONIC_SIGMA_0_0_1
[yyyymmddHHMMSS],[mmolCO2 mol-1],[mmolH2O mol-1],[kg m-1 s-2],[#],[W m-2],[#],[W m-2],[#],[umolCO2 m-2 s-1],[#],[Decimal degrees],[m s-1],[m s-1],[m s-1],[m s-1],[m s-1],[m s-1],[m],[#],[m],[m],[m],[m],[kPa],[%],[deg C],[hPa],[deg C],[deg C]
20221227003000,424.46653491007442,2.1670756763767662,6.1027285684414061E-002,0,-13.577066968354167,0,0.46205496839484911,0,0.43788424199020071,0,218.71133711153561,1.8804354435555319,3.9259084753089977,0.52398795077086124,0.54757937695936432,0.32418966526612519,0.22055225007128898,65.935957826744499,0.28815839833441154,92.007824330592342,168.21964726682677,201.31595388098947,252.02368523886926,94.197090250217016,82.434482758620689,-11.790689655172400,0.43509097002191083,-11.388591008504193,7.1298142292254368E-002
20221227010000,424.40599127452521,2.1650013899211626,0.12501961295875161,0,-12.883349492397221,0,1.1508240801118554,1,0.49127310019427373,0,224.32692438749564,2.0606393228109030,4.4093008227680688,0.63408560787693291,0.56224393025368458,0.39349963973785057,0.31560378067401912,203.62508703589936,9.3308738508483854E-002,104.95742956840414,191.89565570630737,229.65008904611727,287.49466021481760,94.209260205729166,82.909999999999997,-11.872666666666646,0.42053621329349056,-11.477621246337890,8.6966062107260877E-002
20221227013000,424.51074672018882,2.1424348607456549,0.14227021205720108,0,-20.891204550669737,0,0.38921405514524998,0,0.58650165006974797,0,214.58394325306136,2.1001580711639734,5.0868962577849990,0.64714867684810340,0.55237883360005691,0.40346656105277140,0.33656102060273224,152.29056126797607,0.12476150748808983,108.30784513476749,198.02128392185827,236.98090151285535,296.67196751732070,94.213374958545742,83.126666666666665,-12.035000000000025,0.40982381090165776,-11.649234888471256,9.0261844530738655E-002
20221227020000,424.63874564623393,2.1003694917341904,0.11104431843415692,1,-24.166369296510236,0,4.3766800404542755E-002,2,0.54484320708756395,0,204.01935983660294,2.0743509914719334,4.0772785714383017,0.56322720912989488,0.49196382123212817,0.39453216365676386,0.29726437291436308,90.683176819941849,0.20952067038548841,99.839697893828102,182.53880998838073,218.45233449350079,273.47640028883552,94.173299344618059,83.060000000000002,-12.276666666666642,0.40351663761754025,-11.914189773559542,0.12044630705881339
20221227023000,424.65753437620657,2.0593160760761036,0.17936752393581520,0,-30.900335885130460,0,7.7358654512507480E-002,2,0.96067970697679494,0,207.88766975638598,2.4409533476860825,5.3294073644333624,0.78867666405423442,0.61388690642403321,0.46483280331839599,0.37770571074895104,145.44533451509136,0.13063327237924272,106.05724118453391,193.90646210751680,232.05651074124413,290.50721462073005,94.141777299479159,82.859999999999999,-12.495666666666693,0.40113242666488530,-12.130185487535300,0.12967540714784462
20221227030000,424.79876290510936,2.0599893489955976,0.19371621005446035,0,-19.871626607684039,0,0.46959486449056809,0,1.0545678146744448,0,205.49556051494258,2.2767409832820964,4.7519265040548042,0.79380823789090282,0.59096020782341663,0.47984097818586252,0.39241392995286178,253.63347897228499,7.4911246247882618E-002,106.60377041364021,194.90569184488058,233.25233353003267,292.00424285079902,94.143218919487850,83.833333333333329,-12.636000000000024,0.37408840464073934,-12.273657080756266,6.9092289232075985E-002
20221227033000,425.11393928431687,2.0561487084632843,0.21098398200184731,0,-17.099738666284573,0,1.5126630746302889,0,0.77459045031873097,0,210.74354422076453,2.1740919350902508,4.9106086041550130,0.78739725029704732,0.71603659770843797,0.51619880187827161,0.40950226826920078,334.99359146262691,5.6717502914140697E-002,104.04144022448078,190.22093504579797,227.64587614511251,284.98562349131430,94.158560513234121,83.643333333333331,-12.629000000000019,0.37869910817106500,-12.265453971678824,5.7338706735877876E-002
20221227040000,425.05710463821913,2.0208414584324332,0.30187654134085329,0,-24.037556425404379,0,2.4950512635532471E-002,2,1.0588491491308964,0,215.95571117820157,2.5913438929800399,6.2194442295590244,1.0163515267105288,0.75344051200170115,0.60145739053797143,0.48988672437261571,407.90098591967489,4.6579931541870651E-002,106.25944509502739,194.27615534552848,232.49893912617364,291.06108245819973,94.129252066623280,82.303333333333342,-12.647333333333336,0.40911685869291403,-12.289841377258256,8.6636807369285904E-002
20221227043000,425.03884833915077,1.9778359946934654,0.22954438431728716,0,-26.258333166747096,0,-0.12400024351904126,1,0.62979920546436619,0,203.70182339223126,2.7162467842029345,6.7827171569029936,0.85693449415678047,0.75063866489838016,0.54974282763534443,0.42705473886649536,247.25569115126092,7.6843529512032854E-002,102.30905626773128,187.05358465733528,223.85536668269947,280.24035544258885,94.071141118923606,82.569999999999993,-12.960666666666668,0.39286041435853125,-12.620435451931371,0.15547893340051261
20221227050000,425.16240895149417,1.9783731785790963,0.23401697343692354,0,-18.581503246305438,0,-0.20072314783264955,1,0.75924245454915407,0,205.99123298155479,2.7050748165759928,6.5137179056689316,0.87324717440112420,0.75683697551339302,0.55119255608509932,0.43099631690379797,359.16504267668597,5.2900471210678104E-002,102.84686830452544,188.03687658694659,225.03211598618120,281.71350593239583,94.068721381076401,84.260000000000005,-13.207333333333338,0.34773884636308139,-12.857882860819473,8.9675211517008635E-002
20221227053000,425.23816390309383,1.9928488700214393,0.39266669624261624,0,-15.203639468741057,0,0.17151221327985086,2,1.0289760743697249,0,210.28288978301555,2.9917865388193419,6.7669735649037239,1.0774802544328430,0.79742238861246251,0.62349140089463384,0.55832103283150614,954.13157501091496,1.9913396116025869E-002,114.62984793360310,209.57992133750699,250.81363838219900,313.98891262546874,94.053161015842022,84.986666666666665,-13.225333333333310,0.33120018571783533,-12.868221572028233,6.7022494804435895E-002
20221227060000,425.40999522349478,1.9941097822362197,0.27706581350832898,0,-4.1074153554942221,1,-0.10062259399843300,1,0.43334621062195156,0,202.37722878899089,2.7292740322067166,7.2640239787155645,0.97733341108547245,0.88228491787773977,0.57297535445185144,0.46900994107191402,2093.0466083152496,9.0776764953617636E-003,106.68215617114045,195.04900600944615,233.42384398206929,292.21895358457829,94.022104664496524,85.453333333333333,-13.288999999999987,0.31924932727587446,-12.953447865804037,0.10224584241649082
20221227063000,425.70328704844411,1.9852855324390251,0.26477299722303205,0,0.51533534114631974,0,1.1764789927408523E-002,0,0.47093572509614690,0,195.16819367382692,2.5222162782210353,5.6696550630038658,1.0135888028656272,0.77783443163878907,0.57897759402785243,0.45840317212363718,-15568.300134244846,-1.2204286811125003E-003,103.87800144619484,189.92211683296651,227.28826706358967,284.53793935668506,93.957902940104162,86.920000000000002,-13.560999999999979,0.28077652741413234,-13.222354567633715,4.6290438177099921E-002
20221227070000,425.75292187287988,1.9750804578208061,0.37138498428945355,0,0.56465456551560844,1,0.63090560165411114,1,0.70549344153510130,0,199.31716325028117,2.9027514262074545,6.5660300056856782,1.0973633893538481,0.88994944096864148,0.64407862965141238,0.54292814711242898,-23599.387273305856,-8.0510564871705823E-004,109.21886877625109,199.68692569457821,238.97424930395644,299.16740241252546,93.918254759331617,87.040000000000006,-13.646333333333359,0.27627233869522172,-13.309063422309009,5.7269331508410945E-002
20221227073000,425.98592247443929,1.9560246279601072,0.53211019292354955,0,3.5173113982807085E-002,2,0.23659319364638465,1,0.94697234775640782,0,195.68907178827885,2.5759254663551308,7.6406920324407430,1.2931243898521190,0.93265282509399927,0.72752915842873811,0.64978243274829939,-649357.59785002889,-2.9259686901188933E-005,114.39023422204841,209.14183105191131,250.28935620016114,313.33257354714431,93.898857729166664,87.079999999999998,-13.773333333333312,0.27258076140526072,-13.438431139628051,5.9150007352732327E-002
20221227080000,426.10202038254613,1.9335292661698797,0.35302517484252105,0,0.30400183760735427,2,0.33654526113321453,1,0.59472978632737772,0,193.34387874325350,2.6642432752045644,6.8424314858828534,1.1038746410466824,0.97691869522881869,0.71281098888736472,0.52920666934680249,-40580.635591061568,-4.6820360803281766E-004,98.667843840074710,180.39628703443830,215.88828172562953,270.26651048503066,93.877683081597240,86.833333333333329,-13.882999999999981,0.27530808139256041,-13.550305361429821,4.4303350540794026E-002
20221227083000,426.06847378803144,1.9357108628465756,0.41626215840588959,0,-4.6865043294370539,0,-6.0162643025144756E-002,2,0.96147493596072342,0,190.18598909295002,2.7219828586381745,8.0159223974357108,1.1537105938272429,0.96090158291806516,0.68842650214369716,0.57469785291686137,3370.9846532160259,5.6363353603147972E-003,108.37285003792557,198.14013361708177,237.12313424340215,296.85002601801551,93.867925508201040,86.829999999999998,-13.870000000000005,0.27567041527443564,-13.535537561008653,4.5612608187697620E-002
20221227090000,426.03343015004617,1.9377846249025372,0.36182947592020154,0,-14.326698456927611,0,-0.10142457699847648,1,1.4168065592397865,0,178.32669082225271,2.9755091129540245,7.5890310219081121,1.2481070757880957,1.0239118802800089,0.71557761831152999,0.53600418432278152,894.13947541249081,2.1249481230246305E-002,99.372003312396885,181.68371512998829,217.42900434227917,272.19531237227932,93.795199389756945,86.926666666666662,-13.879999999999995,0.27342354158514043,-13.544689715915240,6.0696372327408335E-002
20221227093000,425.66645461576036,1.9343670101472372,0.39823429228064139,0,-24.302752743811471,0,-0.42878991775766728,0,0.76232755208280689,0,177.65472609598658,2.6792199386724946,7.4539380057426170,1.2139176366834297,0.92558147532687529,0.71792188140223212,0.56236889920655331,608.81235058869254,3.1208302495223536E-002,102.99358691540338,188.30512500113241,225.35314082636066,282.11539093810717,93.803747313585077,86.310000000000002,-13.813333333333333,0.28788423029678567,-13.468638712565109,8.5691761803733155E-002
20221227100000,425.51922982581266,1.9548556536808748,0.35643827639704267,0,-15.534467370921114,0,-0.28683613685470510,1,0.74581480323397487,0,176.58465173673960,2.8898966868067517,8.2213045617000002,1.1326441944680345,1.0323233807648429,0.69755164826767069,0.53230640334767998,807.58680578207327,2.3526882638455510E-002,100.86097378092619,184.40602802923416,220.68691759426042,276.27383316570962,93.780642078559026,85.833333333333329,-13.619333333333316,0.30266072807016314,-13.276455157809778,8.6454144997260354E-002
20221227103000,425.26588695608774,1.9593363921730904,0.61161906186015880,0,-12.637412468572398,0,0.17347652893127483,1,0.91964746314407553,0,174.74462187811949,3.3159836639603104,8.4908514332197598,1.4501984288363103,1.0871855823308982,0.84451337958575445,0.69775397815449736,2234.5678299122937,8.5027627023278787E-003,107.48095812207769,196.50947074057487,235.17164725733332,294.40699588332728,93.703127674262163,85.023333333333326,-13.485000000000014,0.32348683288875296,-13.145161343044663,5.6279107177955270E-002
20221227110000,425.15186536997811,1.9479361990887663,0.48070486204867918,0,-11.032180014447775,0,0.48586069006432592,0,0.76785815367842014,0,171.66055180618827,3.0885732990920371,7.7666360863460042,1.2930186324057846,1.1096946212778134,0.81459264708437162,0.61879279281880717,1784.5269677082358,1.0647079222568766E-002,100.49367044014802,183.73448037689951,219.88324657007948,275.26773241050807,93.644136657552068,84.406666666666666,-13.475000000000023,0.33708079588117895,-13.139657215542229,5.1113460917980823E-002
20221227113000,425.20848269893690,1.9221659716214385,0.50421012890504913,0,-14.086461495279840,0,1.8365319579480677,1,0.85633485421027955,0,163.56156300743558,2.8074767828470084,7.0525061698453824,1.2466709047645272,0.97907645292194367,0.76083399948326225,0.63394881740967546,1501.9192738504264,1.2650480176135070E-002,108.20973344809688,197.84190446750685,236.76623012014861,296.40322440748599,93.565366993706590,83.530000000000001,-13.520666666666671,0.35471014270754242,-13.182094253540015,4.5862662288344173E-002
20221227120000,425.29175335779917,1.8910842560858880,0.47946861001030866,0,-14.073303537868780,0,1.0174531357097407,1,0.82006967908979433,0,162.92267846837382,2.5909598967300607,8.0664942183125099,1.2789279759023602,1.0306059059098693,0.77481642979776466,0.61829050322713430,1394.3056195527868,1.3626854639009566E-002,104.53215494499109,191.11811806032384,228.71957506976071,286.32976713522447,93.532940164496509,82.219999999999999,-13.531000000000006,0.38260111282146825,-13.191065864562972,5.4650001836063923E-002
20221227123000,425.20889581693643,1.8679890771767953,0.49832214111119694,0,-20.131245800920567,0,0.20477943920115621,1,0.71640192093986166,0,162.58525645026003,2.8909365568673828,7.4042140448834450,1.2469692853115184,1.0806901420335133,0.81787835063829140,0.63040157923214568,1032.8232599797905,1.8396177483814391E-002,101.67115652729098,185.88730048412296,222.45962240049849,278.49304922631495,93.493782932725708,81.493333333333339,-13.577999999999975,0.39671595280916505,-13.225644160800471,6.1794361900253371E-002
20221227130000,425.19794697932042,1.8611412171342800,0.60280422816871704,0,-19.039014063072642,0,0.53101043111264379,1,0.62941337482361692,0,162.06192884192180,3.1831025931674448,8.3778896848535318,1.4844139444840685,1.1624326518585155,0.84143495287375880,0.69371582884649174,1454.6324428211237,1.3061718851224901E-002,107.29605251825099,196.17140432416201,234.76706810025465,293.90051078777407,93.436001075086793,80.376999999999995,-13.461333333333357,0.42466225424978860,-13.097787960476296,6.9946696369872594E-002
20221227133000,425.22523055682120,1.8605993831251619,0.52748016774698581,0,-15.519928866628684,0,-0.66511704791154935,2,0.63834133443180885,0,164.36563387154195,3.3542199553844032,8.4712590037403874,1.3615073866892098,1.1325445615370027,0.87885784044597337,0.64916853143833819,1462.0558466965499,1.2995399623707708E-002,98.266607265281479,179.66269860787420,215.01036374013074,269.16746134472413,93.414338556423616,79.474666666666664,-13.329000000000008,0.44899799192203632,-12.957403873019700,8.6041908377859924E-002
20221227140000,425.29953274217524,1.8308139749176535,0.70173234792584915,0,-19.165128683541525,0,3.7809807728952158,1,0.68143371734067937,0,165.27393049239473,3.5530824182735530,9.1861835595350296,1.6337071812225559,1.2742441763212609,0.92797081759906186,0.74901369030470499,1818.4819647726881,1.0448275192201324E-002,105.49193274546145,192.87289798501305,230.81959846256737,288.95874722517726,93.405831760199661,77.195666666666668,-13.170666666666648,0.50531146091864232,-12.800640402052125,7.2419726771132772E-002
20221227143000,425.70371476428528,1.8333526725240381,0.69680545596455246,0,-11.530427260685435,0,0.72625010392348999,1,0.90762921417218934,0,156.51850656167693,3.6143000758942372,10.831628714516041,1.5232699740114157,1.3904494228033062,0.99421306664503339,0.74647717728314111,2990.8250628220612,6.3527620642820602E-003,99.559923411394877,182.02729300499820,217.84017930765233,272.71005463713016,93.356248342881941,77.704333333333338,-13.240999999999985,0.49122573362254712,-12.879249376085056,6.1263783799814647E-002
20221227150000,425.95761549510144,1.8391292623895861,0.78298648630752943,0,0.38080278608330687,2,4.3258478999631818,0,0.72289071906811508,0,158.20130477433560,3.7078070435010768,9.5744232286368760,1.5286197343839978,1.3542412329329303,0.97362424722826990,0.79179874990938348,-108039.79788145830,-1.7586112129575507E-004,106.12889546975411,194.03746899386147,232.21329252457306,290.70348680905465,93.311613886602629,76.615666666666669,-13.034333333333336,0.52392828229894373,-12.666341873968463,0.12149006348312445
20221227153000,425.67816735848299,1.8334409150387763,0.84254777118333124,0,-4.8587222948317130,1,8.1727574494578672,0,1.2114800038392830,0,166.78283852523055,3.4958716278130404,9.9050047155997376,1.7010008901000118,1.2675732894273957,0.97319041472580914,0.82220000502226054,9479.5603466305547,2.0043123631523080E-003,109.41544264989504,200.04632542962077,239.40435899482927,299.70584870682563,93.292807837239579,73.461333333333329,-12.555666666666696,0.61809019659815168,-12.176205011155787,0.16488248458136923
20221227160000,425.77383227087876,1.8511951082104616,0.82008054661236429,0,10.777838327622929,0,10.644542461533268,0,0.77515574750233374,0,159.89763189013348,3.7637637317405854,10.091124441415376,1.6222023621073667,1.3826675406988442,1.0105093740923241,0.81191659437578390,-4113.3652432072877,-4.6190889640486321E-003,105.10702814106141,192.16916960914244,229.97741533138537,287.90443388202323,93.237084358072934,72.202666666666673,-12.229333333333329,0.66467180197155384,-11.851734324702477,5.7331251946835748E-002
20221227163000,425.94212446600437,1.8807670430753993,0.88542764300716770,0,15.274586842678799,1,9.1712062629217073,1,0.50115055641576745,1,166.02896193985598,3.6617665761048550,10.693746999335371,1.6644230294334381,1.3765589596300110,1.0713660811253960,0.84393565752962008,-3258.6187047960698,-5.8306913822214297E-003,103.45513579887465,189.14898356358424,226.36302400113135,283.37964483582311,93.200443776041666,72.889666666666670,-12.155000000000030,0.65213627555228471,-11.756734633551673,9.1029876110531927E-002
20221227170000,425.77075009831276,1.9528162336333270,1.0571875618064541,0,4.9661049661622281,2,8.1266262003897491,0,1.0450676189898389,0,159.61567688096628,4.5024773630144708,12.877769742194916,1.9570223093444292,1.4860045351916893,1.1482199283617960,0.92328754350096098,-13114.473906420943,-1.4487809526768330E-003,105.17303745167943,192.28985568154206,230.12184573639470,288.08524361035961,93.102795075086789,73.480000000000004,-11.800666666666643,0.65636429371701444,-11.392915119595045,0.17941254463298206
20221227173000,425.55782386989006,2.0495290716998245,1.4055708079871225,0,-9.2469170066626969,2,8.2752817857096659,0,1.6122801175791639,0,165.21019449498345,3.9154796577168596,10.341942123606099,1.8897007836064683,1.5023612890270246,1.2431024252901581,1.0661578417847335,10838.821796341241,1.7529580573428793E-003,110.74052376816670,202.46899632676832,242.30367729993401,303.33545117919090,93.027914626519106,73.772999999999996,-11.256666666666661,0.67800831436560371,-10.830038848876995,0.22387041279825187
20221227180000,425.38086690363406,2.1150159756402607,1.2380831268854344,0,18.337037821924842,0,14.691918286367514,0,1.0180979204454679,0,163.17805421397185,4.3578511160330704,11.585305317316058,1.9392121822006372,1.5587526758869976,1.1729008726606454,1.0021369453810571,-4537.2983048004644,-4.1875139617551680E-003,110.40468703670265,201.85497967202019,241.56885618624230,302.41554234189425,92.975225669704869,72.314999999999998,-10.618333333333339,0.75303213523802781,-10.215457067701550,0.13570373345133782
20221227183000,425.40016931000270,2.1751569893361591,1.0643079955678192,0,27.304156019837350,0,10.214606615233983,1,0.90593247919451769,0,160.32206540896371,3.7920352024485213,12.134859655522314,1.9238817001438506,1.5748597529132518,1.1298898031699836,0.93039403133508369,-2437.0623679447231,-7.7962715480373599E-003,107.19130564186752,195.97989362683023,234.53787870806312,293.61359286535287,92.898409499565986,71.535333333333327,-10.138333333333321,0.80426813466264147,-9.7478361833360054,0.11622127599213523
20221227190000,425.46661072288111,2.2202461136406266,0.59829873941739165,0,-7.1118575428568178,2,1.1208243421584037,2,0.53375888158681117,0,162.16997196614153,3.8363669264893718,10.398355325183934,1.7023546470756388,1.3650004104267033,0.98187399542426634,0.69809989070238410,3951.0478676766752,4.8088508761025264E-003,95.311290393268507,174.25943681586131,208.54403938740879,261.07239057707784,92.851698815081733,71.512333333333331,-9.8809999999999718,0.82145425255339666,-9.4858057364270394,9.4961649253993627E-002
20221227193000,425.59296523596419,2.2865044255791132,1.2048771784467713,0,1.5404709733034492,0,13.092770049961278,0,0.80748371591641355,0,149.82843287935765,4.3072027761452425,12.706499693135356,1.8993252157136296,1.6058223701974272,1.1511229403115084,0.99153409596065023,-52223.504174373462,-3.6382085615241936E-004,111.12292258326778,203.16814332061992,243.14037768694052,304.38290077724326,92.746629855034712,72.678666666666672,-9.7276666666666642,0.79740986060405361,-9.3437766918606258,6.1312723369915702E-002
20221227200000,425.63089811776325,2.3059799717270502,1.2536718334702668,0,-8.6889694097026346,1,13.436967641702253,1,0.80321393906876581,0,150.68083551130437,4.8061823613156482,13.615008493849222,2.2713663316452015,1.6186469584758436,1.2011362847877884,1.0121156234616835,9840.3457279229879,1.9308264694486857E-003,109.18555187958476,199.62601178159295,238.90135090774356,299.07614227090534,92.653954477647588,72.644000000000005,-9.6266666666666652,0.80480157073817571,-9.2225732930501181,9.6499620133444805E-002
20221227203000,425.58594549061775,2.3697414055075692,1.5039406122125791,0,-16.433419770356387,0,3.9257751312927733,1,0.83705175924284014,0,148.48218858218564,4.9010459797204522,13.846183031992437,2.2144472453293105,1.8782172789838789,1.3336117973059063,1.1096165871777248,6852.3695841677327,2.7727634603800606E-003,108.08606572277847,197.61580042382678,236.49564132764209,296.06447934850206,92.581162630642353,72.879000000000005,-9.3310000000000173,0.81666390362773889,-8.9194857847425624,8.5202145705006699E-002
20221227210000,425.42463392057391,2.4001695820318463,1.4512454541964241,0,-54.806409653477104,1,4.9499653141228013,1,1.2965615568752296,0,155.72429186836411,4.6804627399927003,13.023510642882911,2.2540888272268456,1.7690027602533709,1.3553141176706525,1.0906580440229663,1950.6226120968661,9.7404797228181003E-003,105.23829794947746,192.40917268528509,230.26463771588715,288.26400222437144,92.547141766032183,72.543333333333337,-9.1143333333333203,0.84095299424082814,-8.6840594209921846,0.13849335131600107
20221227213000,425.39370590905082,2.4609818159207184,1.1890575256278504,0,-20.171294001456406,0,3.6467965032924679,1,0.68206260912933780,0,164.92199067033346,5.0111027347614678,13.252086194759038,2.1506895559186372,1.9479585352111335,1.3849113043723968,0.98799710342068492,3938.8761455711137,4.8237109515016528E-003,95.570062209468048,174.73255422691184,209.11024009256343,261.78120667211158,92.515807980468750,72.553666666666672,-8.8009999999999877,0.86152086137206763,-8.3723663694593142,9.5504650786513254E-002
20221227220000,425.66332137653933,2.4641645476635650,1.4696482611414681,0,-25.746228932862490,0,5.9728212794888149,0,0.63937423341341870,0,169.63707678075988,4.8884133347111636,13.097743395319801,2.2277356159849697,1.8335915169359551,1.3495685993485274,1.0983341923969279,4239.1600819094656,4.4820199362326837E-003,106.19071158236908,194.15048856295957,232.34854808318275,290.87281071842551,92.501165573350690,73.059666666666672,-8.8753333333333444,0.84073411029728162,-8.4576638539631972,8.3648659678658741E-002
20221227223000,425.89256541636007,2.4468509280758122,1.4450105475965385,0,-33.621845083773962,0,13.169642191413987,0,0.85676139207594626,0,170.98553912588307,5.7846344164550869,16.205836211915123,2.4945208090855506,1.9740750259952065,1.4262545285323065,1.0890181348978747,3163.8495136444494,6.0053425164693858E-003,100.90794463587213,184.49190573266119,220.78969127179107,276.40249361440971,92.484333658420141,72.992666666666665,-8.9560000000000173,0.83751893941170352,-8.5399494696723082,0.10000565761690537